Skip Page Navigation
NASA JPL Caltech
NASA Logo - Jet Propulsion Laboratory + View the NASA Portal
+ Center for Near-Earth Object Studies
JPL Home Earth Solar System Stars & Galaxies Technology
JPL Solar System Dynamics
BODIES ORBITS EPHEMERIDES TOOLS PHYSICAL DATA DISCOVERY FAQ SITE MAP
IMPORTANT: The SSD Announcement email list is now available. Major changes are coming in the near future, including possible hostname and/or URL changes. To be notified of such changes, subscribe to this email list.

Please visit this page for more details.


JPL Small-Body Database Browser
Search: [ help ]  
344087 (1999 CA130)
Classification: Main-belt Asteroid          SPK-ID: 2344087
Ephemeris | Orbit Diagram | Orbital Elements | Mission Design | Physical Parameters | Discovery Circumstances ]

[ show orbit diagram ]
Orbital Elements at Epoch 2458600.5 (2019-Apr-27.0) TDB
Reference: JPL 9 (heliocentric ecliptic J2000)
 Element Value Uncertainty (1-sigma)   Units 
e .09424982892219728 4.7674e-08  
a 2.34356222866624 1.5255e-08 au
q 2.122681889545923 1.174e-07 au
i 6.609823110462016 5.1403e-06 deg
node 110.8709295883595 5.6518e-05 deg
peri 353.4082922286868 7.1234e-05 deg
M 247.5331631104109 4.0891e-05 deg
tp 2459009.888031359445
(2020-Jun-09.38803136)
0.00014919 TDB
period 1310.427992512013
3.59
1.2795e-05
3.503e-08
d
yr
n .2747194062223147 2.6823e-09 deg/d
Q 2.564442567786556 1.6693e-08 au
  Orbit Determination Parameters
   # obs. used (total)      130  
   data-arc span      7590 days (20.78 yr)  
   first obs. used      1999-01-19  
   last obs. used      2019-10-31  
   planetary ephem.      DE431  
   SB-pert. ephem.      SB431-N16  
   condition code      0  
   norm. resid. RMS      .54685  
   source      ORB  
   producer      Otto Matic  
   solution date      2019-Nov-08 10:23:09  

Additional Information
 Earth MOID = 1.13986 au 
 Jupiter MOID = 2.53459 au 
 T_jup = 3.548 
[ show covariance matrix ]

Ephemeris | Orbit Diagram | Orbital Elements | Mission Design | Physical Parameters | Discovery Circumstances ]

Physical Parameter Table
Parameter Symbol Value Units Sigma Reference Notes
absolute magnitude H 17.7   n/a MPO418775  

344087 (1999 CA130)          Discovered 1999-Feb-06 by Veillet, C. at Mauna Kea
Reference: 20121128/Numbers.arcLast Updated: 2012-12-03
Ephemeris | Orbit Diagram | Orbital Elements | Mission Design | Physical Parameters | Discovery Circumstances ]
ABOUT SSD CREDITS/AWARDS PRIVACY/COPYRIGHT GLOSSARY LINKS
FirstGov 2019-Dec-07 20:11 UT
(server date/time)  
NASA Home Page
Site Manager:   Ryan S. Park
Webmaster  Alan B. Chamberlin